Time,TemperatureF,DewpointF,PressureIn,WindDirection,WindDirectionDegrees,WindSpeedMPH,WindSpeedGustMPH,Humidity,HourlyPrecipIn,Conditions,Clouds,dailyrainin,SoftwareType,DateUTC
2013-09-15 00:02:00,-999.0,-99.9,30.04,NNW,331,3.0,-999.0,-999,-99.99,,,-99.99,,2013-09-15 04:02:00,
2013-09-15 00:14:00,55.0,48.0,30.04,NNW,331,3.0,-999.0,78,-99.99,,,-99.99,,2013-09-15 04:14:00,
2013-09-15 00:24:00,54.0,48.0,30.04,NNW,333,3.0,-999.0,79,-99.99,,,-99.99,,2013-09-15 04:24:00,
2013-09-15 00:43:00,55.0,48.0,30.04,NNW,334,4.0,-999.0,77,-99.99,,,-99.99,,2013-09-15 04:43:00,
2013-09-15 00:54:00,55.0,48.0,30.04,NNW,333,4.0,-999.0,77,-99.99,,,-99.99,,2013-09-15 04:54:00,
2013-09-15 01:13:00,55.0,49.0,30.04,NNW,329,4.0,-999.0,79,-99.99,,,-99.99,,2013-09-15 05:13:00,
2013-09-15 01:22:00,55.0,48.0,30.05,NNW,328,4.0,-999.0,78,-99.99,,,-99.99,,2013-09-15 05:22:00,
2013-09-15 01:42:00,55.0,49.0,30.05,NNW,338,3.0,-999.0,79,-99.99,,,-99.99,,2013-09-15 05:42:00,
2013-09-15 01:52:00,54.0,48.0,30.06,NNW,340,3.0,-999.0,81,-99.99,,,-99.99,,2013-09-15 05:52:00,
2013-09-15 02:12:00,53.0,48.0,30.06,NNW,336,3.0,-999.0,83,-99.99,,,-99.99,,2013-09-15 06:12:00,
2013-09-15 02:21:00,53.0,48.0,30.06,NNW,340,3.0,-999.0,83,-99.99,,,-99.99,,2013-09-15 06:21:00,
2013-09-15 02:42:00,53.0,48.0,30.06,NNW,337,3.0,-999.0,84,-99.99,,,-99.99,,2013-09-15 06:42:00,
2013-09-15 02:52:00,51.0,47.0,30.06,NNW,347,3.0,-999.0,87,-99.99,,,-99.99,,2013-09-15 06:52:00,
2013-09-15 03:11:00,53.0,48.0,30.06,NNW,345,5.0,-999.0,82,-99.99,,,-99.99,,2013-09-15 07:11:00,
2013-09-15 03:22:00,54.0,48.0,30.06,NNW,343,4.0,-999.0,80,-99.99,,,-99.99,,2013-09-15 07:22:00,
2013-09-15 03:42:00,54.0,48.0,30.06,North,356,5.0,-999.0,81,-99.99,,,-99.99,,2013-09-15 07:42:00,
2013-09-15 03:52:00,55.0,49.0,30.06,NNW,336,4.0,-999.0,80,-99.99,,,-99.99,,2013-09-15 07:52:00,
2013-09-15 04:11:00,54.0,48.0,30.06,NNW,335,4.0,-999.0,81,-99.99,,,-99.99,,2013-09-15 08:11:00,
2013-09-15 04:22:00,53.0,48.0,30.06,NNW,334,3.0,-999.0,83,-99.99,,,-99.99,,2013-09-15 08:22:00,
2013-09-15 04:43:00,52.0,48.0,30.06,NNW,347,3.0,-999.0,86,-99.99,,,-99.99,,2013-09-15 08:43:00,
2013-09-15 04:52:00,51.0,47.0,30.06,NNW,346,3.0,-999.0,87,-99.99,,,-99.99,,2013-09-15 08:52:00,
2013-09-15 05:12:00,51.0,48.0,30.06,NNW,335,3.0,-999.0,89,-99.99,,,-99.99,,2013-09-15 09:12:00,
2013-09-15 05:22:00,50.0,47.0,30.07,NNW,335,3.0,-999.0,90,-99.99,,,-99.99,,2013-09-15 09:22:00,
2013-09-15 05:44:00,50.0,47.0,30.07,NNW,335,3.0,-999.0,91,-99.99,,,-99.99,,2013-09-15 09:44:00,
2013-09-15 05:53:00,50.0,48.0,30.07,NNW,335,3.0,-999.0,92,-99.99,,,-99.99,,2013-09-15 09:53:00,
2013-09-15 06:13:00,49.0,47.0,30.07,NNW,342,3.0,-999.0,92,-99.99,,,-99.99,,2013-09-15 10:13:00,
2013-09-15 06:23:00,49.0,47.0,30.09,NNW,342,3.0,-999.0,93,-99.99,,,-99.99,,2013-09-15 10:23:00,
2013-09-15 06:43:00,49.0,47.0,30.09,NNW,342,3.0,-999.0,93,-99.99,,,-99.99,,2013-09-15 10:43:00,
2013-09-15 06:53:00,50.0,48.0,30.09,NNW,338,4.0,-999.0,94,-99.99,,,-99.99,,2013-09-15 10:53:00,
2013-09-15 07:12:00,50.0,48.0,30.10,NNW,337,3.0,-999.0,93,-99.99,,,-99.99,,2013-09-15 11:12:00,
2013-09-15 07:22:00,51.0,49.0,30.10,NNW,346,4.0,-999.0,93,-99.99,,,-99.99,,2013-09-15 11:22:00,
2013-09-15 07:42:00,58.0,52.0,30.10,North,355,3.0,-999.0,80,-99.99,,,-99.99,,2013-09-15 11:42:00,
2013-09-15 10:22:00,67.0,51.0,30.14,WNW,300,5.0,-999.0,57,-99.99,,,-99.99,,2013-09-15 14:22:00,
2013-09-15 15:22:00,68.0,53.0,30.09,WSW,257,10.0,-999.0,58,-99.99,,,-99.99,,2013-09-15 19:22:00,
2013-09-15 15:52:00,68.0,52.0,30.09,SW,230,11.0,-999.0,57,-99.99,,,-99.99,,2013-09-15 19:52:00,
2013-09-15 16:11:00,68.0,53.0,30.09,SW,225,9.0,-999.0,58,-99.99,,,-99.99,,2013-09-15 20:11:00,
2013-09-15 16:22:00,67.0,52.0,30.08,WSW,245,11.0,-999.0,59,-99.99,,,-99.99,,2013-09-15 20:22:00,
2013-09-15 16:42:00,66.0,53.0,30.08,SW,226,12.0,-999.0,62,-99.99,,,-99.99,,2013-09-15 20:42:00,
2013-09-15 16:53:00,64.0,52.0,30.07,WSW,247,10.0,-999.0,65,-99.99,,,-99.99,,2013-09-15 20:53:00,
2013-09-15 17:11:00,65.0,52.0,30.07,SW,219,8.0,-999.0,63,-99.99,,,-99.99,,2013-09-15 21:11:00,
2013-09-15 17:22:00,64.0,52.0,30.07,WSW,251,9.0,-999.0,66,-99.99,,,-99.99,,2013-09-15 21:22:00,
2013-09-15 17:44:00,64.0,53.0,30.07,SW,217,8.0,-999.0,67,-99.99,,,-99.99,,2013-09-15 21:44:00,
2013-09-15 17:54:00,66.0,53.0,30.06,WSW,239,11.0,-999.0,62,-99.99,,,-99.99,,2013-09-15 21:54:00,
2013-09-15 18:14:00,65.0,53.0,30.06,SW,234,8.0,-999.0,64,-99.99,,,-99.99,,2013-09-15 22:14:00,
2013-09-15 18:23:00,63.0,52.0,30.06,West,260,6.0,-999.0,67,-99.99,,,-99.99,,2013-09-15 22:23:00,
2013-09-15 18:44:00,63.0,51.0,30.06,WSW,241,7.0,-999.0,66,-99.99,,,-99.99,,2013-09-15 22:44:00,
2013-09-15 18:53:00,63.0,52.0,30.06,WSW,255,8.0,-999.0,68,-99.99,,,-99.99,,2013-09-15 22:53:00,
2013-09-15 19:12:00,62.0,52.0,30.06,WSW,252,7.0,-999.0,69,-99.99,,,-99.99,,2013-09-15 23:12:00,
2013-09-15 19:22:00,61.0,51.0,30.06,WSW,252,6.0,-999.0,70,-99.99,,,-99.99,,2013-09-15 23:22:00,
2013-09-15 19:42:00,60.0,51.0,30.06,West,264,6.0,-999.0,71,-99.99,,,-99.99,,2013-09-15 23:42:00,
2013-09-15 19:52:00,59.0,50.0,30.06,West,273,5.0,-999.0,73,-99.99,,,-99.99,,2013-09-15 23:52:00,
2013-09-15 20:11:00,58.0,50.0,30.06,West,263,5.0,-999.0,74,-99.99,,,-99.99,,2013-09-16 00:11:00,
2013-09-15 20:22:00,58.0,50.0,30.06,West,279,5.0,-999.0,75,-99.99,,,-99.99,,2013-09-16 00:22:00,
2013-09-15 20:42:00,57.0,49.0,30.06,WSW,255,4.0,-999.0,75,-99.99,,,-99.99,,2013-09-16 00:42:00,
2013-09-15 20:52:00,58.0,50.0,30.06,West,264,4.0,-999.0,74,-99.99,,,-99.99,,2013-09-16 00:52:00,
2013-09-15 21:12:00,57.0,49.0,30.06,West,274,4.0,-999.0,75,-99.99,,,-99.99,,2013-09-16 01:12:00,
2013-09-15 21:21:00,57.0,50.0,30.06,WNW,283,4.0,-999.0,78,-99.99,,,-99.99,,2013-09-16 01:21:00,
2013-09-15 21:42:00,56.0,50.0,30.06,WNW,285,3.0,-999.0,80,-99.99,,,-99.99,,2013-09-16 01:42:00,
2013-09-15 21:52:00,56.0,51.0,30.06,WNW,286,4.0,-999.0,82,-99.99,,,-99.99,,2013-09-16 01:52:00,
2013-09-15 22:12:00,56.0,51.0,30.06,West,278,4.0,-999.0,84,-99.99,,,-99.99,,2013-09-16 02:12:00,
2013-09-15 22:22:00,56.0,51.0,30.06,West,278,4.0,-999.0,84,-99.99,,,-99.99,,2013-09-16 02:22:00,
2013-09-15 22:42:00,55.0,51.0,30.05,WNW,288,3.0,-999.0,86,-99.99,,,-99.99,,2013-09-16 02:42:00,
2013-09-15 22:52:00,56.0,52.0,30.06,WNW,288,4.0,-999.0,87,-99.99,,,-99.99,,2013-09-16 02:52:00,
2013-09-15 23:11:00,56.0,52.0,30.06,West,278,5.0,-999.0,88,-99.99,,,-99.99,,2013-09-16 03:11:00,
2013-09-15 23:22:00,56.0,52.0,30.05,West,276,4.0,-999.0,88,-99.99,,,-99.99,,2013-09-16 03:22:00,
2013-09-15 23:45:00,56.0,52.0,30.05,West,279,5.0,-999.0,87,-99.99,,,-99.99,,2013-09-16 03:45:00,
2013-09-15 23:54:00,57.0,53.0,30.05,West,281,5.0,-999.0,88,-99.99,,,-99.99,,2013-09-16 03:54:00,